Location: Cartignies
(50.0929°N, 3.8447°E)
Time: 14:20:57
(UTC+00:00)

USA 59 Rocket - Pass Details

Date: 12 January 2026
Orbit: 369 x 1672 km, 63.3° (Epoch: 16 February)

Event Time Altitude Azimuth Distance (km) Brightness Sun altitude
Rises 17:10:43 0° 322° (NW) 2,238 3.2 -9.9°
Reaches altitude 10° 17:14:03 10° 4° (N) 1,456 1.7 -10.4°
Maximum altitude 17:14:53 11° 20° (NNE) 1,440 1.6 -10.5°
Enters shadow 17:15:25 10° 30° (NNE) 1,479 1.6 -10.6°
